Regional Weather Roundup
Issued by NWS

Home | Current Version | Previous Version | Text Only | Print | Product List | Glossary Off
Versions: 1 2 3 4 5 6 7 8 9 10 11 12 13 14 15 16 17 18 19 20 21 22 23 24 25 26 27 28 29 30 31 32 33 34 35 36 37 38 39 40 41 42 43 44 45 46 47 48 49 50

782
ASUS45 KBOU 242107
RWRCO

WEATHER ROUNDUP FOR COLORADO
NATIONAL WEATHER SERVICE DENVER/BOULDER CO
300 PM MDT SAT JUN 24 2017

NOTE: "FAIR" INDICATES FEW OR NO CLOUDS BELOW 12000 FEET WITH NO
SIGNIFICANT WEATHER AND/OR OBSTRUCTIONS TO VISIBILITY.

COZ001>005-013-030-031-242200-
...NORTHWEST COLORADO...

CITY           SKY/WX    TMP DP  RH WIND       PRES   REMARKS
CRAIG          FAIR      80  21  11 NW12G22   30.29F
HAYDEN         FAIR      75  25  15 NW10G17   30.31S
MEEKER         FAIR      81  22  11 NE9G20    30.29F
RABBIT EARS PA FAIR      57  32  38 NW7       30.55F
STEAMBOAT SPGS FAIR      73  33  23 S5        30.32F
WALDEN         FAIR      70  28  21 N12       30.40S
$$

COZ006>008-011-242200-
...WEST CENTRAL VALLEYS...

CITY           SKY/WX    TMP DP  RH WIND       PRES   REMARKS
GRAND JUNCTION FAIR      90  26  10 SW9       30.11F
MONTROSE       FAIR      87  27  11 NW9       30.18F
EAGLE          MOSUNNY   82  27  13 CALM      30.24F
RIFLE          FAIR      88  21   8 N10G21    30.19F
DELTA          FAIR      94  14   5 W16G22    30.12F
NUCLA          FAIR      90  19   7 N5        30.21F
$$

COZ017>023-064>068-242200-
...SOUTHWEST COLORADO...

CITY           SKY/WX    TMP DP  RH WIND       PRES   REMARKS
DURANGO        FAIR      90  21   8 W20G26    30.19F
CORTEZ         FAIR      91  27  10 E3        30.16F
PAGOSA SPRINGS FAIR      85  25  11 W13G23    30.28F
TELLURIDE      FAIR      76  12   9 N3        30.45S
WOLF CREEK PAS FAIR      59  36  41 S15G24    30.66F
$$

COZ009-010-012-014-032>034-037-058>063-242200-
...CENTRAL COLORADO...

CITY           SKY/WX    TMP DP  RH WIND       PRES   REMARKS
ASPEN          FAIR      78  20  11 N15G23    30.31F
BUENA VISTA    FAIR      83  14   7 NW16G24   30.26F
COPPER MTN     FAIR      61  18  18 NW16G30   30.63S
BERTHOUD PASS  FAIR      50  36  57 W25G40    30.66S
COTTONWOOD PAS FAIR      73  -9   3 SW7G24    30.43F
GUNNISON       FAIR      80  19  10 W13G24    30.30S
KREMMLING      NOT AVBL
LEADVILLE      FAIR      67   8  10 W15G24    30.45F
SALIDA         FAIR      79  42  27 SE17G26   30.32F
SUNLIGHT       FAIR      63  23  22 W8G17     30.59F
WILKERSON PASS PTSUNNY   54  41  62 E14G23    30.60S
$$

COZ069>075-242200-
...SAN LUIS VALLEY/SANGRE DE CRISTO MOUNTAINS...

CITY           SKY/WX    TMP DP  RH WIND       PRES   REMARKS
ALAMOSA        FAIR      82  29  14 NE7       30.25F
DEL NORTE      FAIR      79  34  19 S3        30.28F
LA VETA PASS   PTSUNNY   59  48  67 MISG      30.61F
SAGUACHE       FAIR      82  16   8 NW21G32   30.27F
$$

COZ035-036-038>040-242200-
...NORTHERN COLORADO FRONT RANGE...

CITY           SKY/WX    TMP DP  RH WIND       PRES   REMARKS
DENVER INTL AP PTSUNNY   73  45  36 NE10G17   30.28F
DMNS CITY PARK   N/A     71  46  40 N8G20     30.28S
AURORA         PTSUNNY   71  47  42 CALM      30.29F
FRONT RANGE AP CLOUDY    77  45  31 N8        30.29F
ERIE MUNI ARPT FAIR      72  46  40 CALM      30.28F
BOULDER MUN AP FAIR      70  45  40 E5        30.30F
CENTENNIAL     PTSUNNY   69  48  47 NW8G23    30.30F
BROOMFIELD     FAIR      72  45  37 W5        30.32F
FORT COLLINS   PTSUNNY   71  47  42 W3        30.29F
LONGMONT       CLOUDY    73  45  36 CALM      30.31S
$$

COZ041-046-047-076>085-087-088-242200-
...PIKES PEAK/PALMER DIVIDE AND SOUTHERN FOOTHILLS...

CITY           SKY/WX    TMP DP  RH WIND       PRES   REMARKS
COLO. SPRINGS  PTSUNNY   65  46  50 S5G16     30.34F
A. F. ACADEMY  FAIR      68  45  43 S9        30.34F
SCHRIEVER AFB  PTSUNNY   65  44  46 SE8       30.34F
CHEYENNE MTN   PTSUNNY   60  46  59 NE3       30.33S
ELLICOTT       PTSUNNY  N/A N/A N/A SE7       30.33F
FALCON           N/A     67  42  40 SE9       30.38F
FORT CARSON    CLOUDY    67  46  46 E7        30.31S
LIMON          FAIR      71  45  39 S14G25    30.31F
MONUMENT HILL  FAIR      66  43  42 SE8G16    30.37F
CANON CITY     PTSUNNY   75  52  43 E14G22    30.26S
WALSENBURG     MOCLDY    77  50  38 E8        30.26F
TRINIDAD       FAIR      74  47  38 VRB5      30.25F
$$

COZ042>045-048>051-090-091-242200-
...NORTHEAST COLORADO...

CITY           SKY/WX    TMP DP  RH WIND       PRES   REMARKS
GREELEY ARPT   FAIR      74  47  38 VRB3      30.28F
AKRON          PTSUNNY   70  48  45 SE12G17   30.29F
BURLINGTON     CLOUDY    73  50  44 S8        30.28F
WRAY           CLOUDY    73  45  35 S5        30.27F
YUMA           CLOUDY    68  48  49 E8        30.28F
STERLING       PTSUNNY   72  45  37 E8        30.28S
HOLYOKE        NOT AVBL
FORT MORGAN    FAIR      76  44  31 NE7       30.28F
$$

COZ086-089-092>099-242200-
...SOUTHEAST COLORADO...

CITY           SKY/WX    TMP DP  RH WIND       PRES   REMARKS
PUEBLO         PTSUNNY   75  48  38 VRB6G17   30.23F
LA JUNTA       CLOUDY    77  47  34 SE16G22   30.23F
LAMAR          CLOUDY    76  46  34 S14G22    30.23F
SPRINGFIELD      N/A     73  48  41 S18G32    30.26F
$$




USA.gov is the U.S. government's official web portal to all federal, state and local government web resources and services.